PSLV R/B, 40058

Orbit data source: Space-Track

PSLV R/B, 40058 is space debris in SSO originally from a launch on Mon, 30 Jun 2014 UTC launched from the Sirharikota (SRI). Debris objects in space refer to the collection of defunct objects orbiting the Earth. Examples of debris include non-operational satellites, rocket bodies, and fragments generated from explosions, collisions, or faulty payload assembly.

Loading next visibility...
Identifier
40058, 2014-034F
Orbit
SSO
Country
Flag of ININ / IND
Related business
Manufacturer
VSSC/LPSC
Mission
Spacecraft
Bus & Motor
PS-4, Unknown motor
Mass
920 kg wet, 920 kg dry
Launch date (UTC)
2014-06-30 (12 years ago)
Launch vehicle
Unknown
Launch site
Sirharikota (SRI)
Object type
Payload
Rocket body
Debris
Shape & HBR
Cyl + Cyl + 2 Nozzle, 1.6 m
Radar Cross Section
3.727 m², Large (>1 m²)

Expand to show TLE details & history
Last TLE update: 18 hours ago

TLE from 18 hours ago
0 PSLV R/B
1 40058U 14034F   26037.53823374  .00001324  00000-0  16528-3 0  9997
2 40058  98.3034 254.0724 0021128  39.6756 320.5998 14.84073426626694
Epoch: 2026-02-06T12:55Z
TLE epoch observation values (Epoch: 2026-02-06T12:55:03.395Z)
Latitude
Longitude
-76.36642°
Altitude
608.101 km
Speed
7.561 km/s
True Right ascension
16h 56m 17s
True Declination
0° 00' 00"
Sunlit
Object was in daylight at epoch
Visualization orbit readout
Latitude
Unknown
Longitude
Unknown
Altitude
Unknown
Speed
Unknown
Apparent Right ascension
Unknown
Apparent Declination
Unknown
Sunlit
N/A
Visualization observer readout
Local Sidereal Time
09:33:18
Azimuth
Unknown
Elevation
Unknown
Doppler factor
Unknown
Orbital elements
Apogee altitude
628.322 km
Perigee altitude
598.778 km
Semi-major axis
6,991.687 km
Eccentricity
0.00211
Inclination
98.3034°
RAAN
254.0724°
Arg. of periapsis
39.6756°
True anomaly
320.44581°
Mean anomaly
320.5998°
Eccentric anomaly
320.52284°
Mean motion
3.71253 °/min
Orbital period
96.97 mins
BSTAR
0.00016528
Loading maneuver chart data...
Computing Atmospheric mass density...
Loading historical data...
Loading historical data...
Loading historical data...
Loading historical data...
Loading historical data...
Loading historical data...
Loading historical data...
Other satellites on launch #34 in the year 2014 (2014-06-30 UTC)

Documentation

Showing up to 5 results
|